x

8461490 - New London, Ct (nlnc3) Weather Station

5:30 - Thu 27th Aug 2015 All times are EDT. -4 hours from GMT.

  • Wind
    6mph, 9mph gusts
  • Sea Temp 74°f
  • Ar Temp 78°f
  • Sea Pressure 1015.1mb
  • 8461490 - New London, Ct
  • 8461490 - New London, Ct

More Historic Weather Station data

Upgrade to MSW Pro to gain access to the past 30 days of data for over 8000 Wavebouys and Weather Stations around the globe.

Join Pro

Comparision Forecast

View Surf forecast
   
Qui 08/27 5:30 6 9 mph 1015.1mb 74f 78f
5:24 5 13 mph 1015.1mb 74f 78f
5:18 2 7 mph 1015.1mb 73f 79f
5:12 5 10 mph 1015mb 74f 78f
5:06 7 11 mph 1014.9mb 73f 78f
5:00 5 11 mph 1014.9mb 72f 78f
4:54 5 9 mph 1014.8mb 73f 78f
4:48 7 9 mph 1014.8mb 73f 78f
4:42 5 9 mph 1014.9mb 74f 78f
4:36 8 10 mph 1014.9mb 74f 76f
4:30 8 13 mph 1014.9mb 74f 76f
4:24 7 11 mph 1014.9mb 74f 76f
4:18 8 14 mph 1014.9mb - -
4:12  -  mph 1014.9mb 74f 76f
4:06 7 10 mph 1014.9mb 74f 76f
4:00 9 14 mph - - -
3:54 10 17 mph - - -
3:48  -  mph - 75f 76f
3:42  -  mph - 75f 76f
3:36  -  mph - 75f 75f
3:30 11 16 mph 1015.1mb 75f 75f
3:24 6 13 mph 1015mb 75f 75f
3:18  -  mph 1015.1mb - 76f
3:12  -  mph 1015.1mb - 76f
3:06  -  mph 1015.1mb - 75f
3:00 14 17 mph - - 75f
2:54 9 15 mph - - 76f
2:48 11 16 mph - - 75f
2:42 9 17 mph - - 75f
2:36 8 14 mph - - 75f
2:30  -  mph - 75f -
2:24  -  mph - 75f -
2:18 11 18 mph 1015.2mb 75f 75f
2:12 7 14 mph 1015.2mb 74f 76f
2:06 9 14 mph 1015.3mb 74f 76f
2:00 10 14 mph 1015.3mb 74f 76f
1:54 9 14 mph 1015.3mb 74f 76f
1:48 11 16 mph 1015.3mb 74f 75f
1:42 13 15 mph 1015.4mb 75f 75f
1:36 8 13 mph 1015.3mb 75f 77f
1:30 8 11 mph 1015.2mb 75f 77f
1:24 6 13 mph 1015.3mb 75f 77f
1:18 5 10 mph 1015.3mb 75f 78f
1:12 6 10 mph 1015.5mb 75f 77f
1:06 5 9 mph 1015.4mb 74f 77f
1:00 5 14 mph 1015.4mb 75f 77f
12:54 6 9 mph 1015.5mb 75f 79f
12:48 7 11 mph 1015.4mb 75f 78f
12:42 7 13 mph 1015.5mb 75f 78f
12:36 3 13 mph 1015.5mb 75f 78f
12:30  -  mph - - 77f
12:24  -  mph - - 77f
12:18 6 10 mph 1015.7mb 75f 77f
12:12 6 10 mph 1015.6mb 75f 76f
12:06 5 8 mph 1015.7mb 75f 76f
12:00 5 9 mph 1015.7mb 74f 76f
11:54 6 10 mph 1015.6mb 74f 76f
11:48  -  mph - 75f 76f
11:42  -  mph - 75f 76f
11:36  -  mph - 75f 76f
11:30 6 14 mph 1015.8mb 75f 75f
11:24 7 16 mph 1015.8mb 74f 76f
11:18  -  mph - - 75f
11:12  -  mph - - 75f
11:06  -  mph - - 74f
11:00 7 11 mph 1016mb 74f 73f
10:54 8 13 mph 1015.9mb 74f 74f
10:48 7 10 mph 1015.9mb 74f 74f
10:42 7 11 mph 1015.9mb 74f 74f
10:36 7 13 mph 1015.9mb 74f 74f
10:30 5 13 mph 1015.8mb 74f 74f
10:24 9 11 mph 1015.8mb 74f 73f
10:18 7 14 mph 1015.8mb 74f 73f
10:12 9 11 mph 1015.7mb 74f 72f
10:06 9 14 mph 1015.7mb 74f 72f
10:00 8 14 mph 1015.7mb 74f 72f
9:18  -  mph - 74f 71f
9:12  -  mph - 73f 70f
9:06  -  mph - 73f 70f
9:00  -  mph - 74f 70f
8:54  -  mph - 74f 70f
8:48  -  mph - 74f 70f
8:42  -  mph - 74f 70f
8:36  -  mph - 74f 69f
8:30  -  mph - 74f 68f
8:24  -  mph - 74f 67f
8:18  -  mph - 73f 67f
8:12  -  mph - 73f 67f
8:06  -  mph - 73f 67f
8:00 3 5 mph 1015.3mb 73f 66f
7:54 1 5 mph 1015.3mb 74f 66f
7:48  -  mph - 74f 65f
7:42  -  mph - 74f 65f
7:36  -  mph - 74f 65f
7:30  -  mph - - 65f
7:24  -  mph - - 65f
7:18 2 5 mph 1014.9mb 74f 65f
7:12 2 3 mph 1014.8mb 74f 65f
7:06 1 5 mph 1014.8mb 74f 65f
7:00 3 5 mph 1014.8mb 74f 65f
6:54 3 7 mph 1014.7mb 74f 65f
6:48 3 7 mph 1014.6mb 73f 64f
6:42 5 7 mph 1014.6mb 73f 64f
6:36 6 8 mph 1014.5mb 73f 64f
6:30 3 6 mph 1014.5mb 73f 64f
6:24 5 7 mph 1014.5mb 73f 64f
6:18 5 6 mph 1014.4mb 73f 64f
6:12 3 6 mph 1014.3mb 73f 64f
6:06 5 6 mph 1014.3mb 73f 64f
6:00 3 6 mph 1014.2mb 73f 64f
1:30 3 6 mph 1014mb 75f 68f
1:24 5 6 mph 1014mb 75f 68f
1:18 5 7 mph 1014.1mb 75f 68f
1:12 3 6 mph 1014.2mb 75f 68f
1:06 2 6 mph 1014.3mb 75f 68f
1:00 5 6 mph 1014.2mb 75f 68f
12:54 3 6 mph 1014.2mb 75f 68f
12:48 3 6 mph 1014.2mb 75f 68f
12:42 5 6 mph 1014.2mb 75f 68f
12:36 3 7 mph 1014.2mb 75f 68f
12:30 3 6 mph 1014.2mb 75f 68f
12:24 5 7 mph 1014.1mb 74f 68f
12:18 5 7 mph 1014.2mb 74f 68f
12:12 5 6 mph 1014.1mb 75f 68f
12:06 3 7 mph 1014.1mb 75f 68f
12:00 3 7 mph - 75f 68f
Qua 08/26 11:54 2 7 mph - 75f 68f
11:48 5 7 mph 1014.1mb 75f 68f
11:42 6 8 mph 1014.1mb 75f 68f
11:36 5 7 mph 1014.1mb 75f 69f
11:30 5 7 mph 1014.1mb 75f 69f
11:24 3 7 mph 1014.1mb 75f 69f
11:18 3 7 mph 1014.1mb 75f 69f
11:12 3 6 mph 1014.1mb 75f 69f
11:06 3 6 mph 1014.1mb 75f 69f
11:00 2 5 mph 1014.1mb 75f 69f
10:54 1 3 mph 1014mb 75f 69f
10:48 2 5 mph 1014mb 75f 69f
10:42 3 6 mph 1013.9mb 75f 69f
10:36 3 6 mph 1013.9mb 75f 69f
10:30 3 6 mph 1013.9mb 76f 69f
10:24 5 7 mph 1013.9mb 75f 70f
10:18 5 7 mph 1013.8mb 75f 70f
10:12 3 5 mph 1013.7mb 75f 70f
10:06  -  3 mph 1013.7mb 75f 70f
10:00 2 3 mph 1013.7mb 75f 70f
9:54 3 5 mph 1013.6mb 75f 70f
9:48 1 2 mph 1013.5mb 75f 70f
9:42 1 2 mph 1013.6mb 75f 71f
9:36 1 3 mph 1013.6mb 75f 71f
9:30 2 3 mph 1013.5mb 75f 71f
9:24  -  2 mph 1013.4mb 75f 72f
9:18 1 2 mph 1013.3mb 75f 72f
9:12  -  2 mph 1013.2mb 75f 72f
9:06 2
mph
1013.1mb 74f 73f
9:00 1 2 mph 1013mb 74f 73f
8:54 2 3 mph 1012.9mb 74f 73f
8:48 3 5 mph 1012.8mb 74f 73f
8:42 2 5 mph 1012.8mb 75f 73f
8:36 2 3 mph 1012.7mb 75f 73f
8:30 2 3 mph 1012.6mb 75f 73f
8:24 2 6 mph 1012.5mb 75f 74f
8:18 3 6 mph 1012.4mb 75f 74f
8:12 3 6 mph 1012.3mb 75f 74f
8:06 3 6 mph 1012.3mb 75f 74f
8:00 3 6 mph 1012.2mb 75f 74f
7:54 2 5 mph 1012.1mb 75f 75f
7:48 3 6 mph 1012.1mb 75f 75f
7:42 3 6 mph 1012mb 75f 75f
7:36 5 6 mph 1012mb 75f 76f
7:30 2 6 mph 1012mb 74f 76f
7:24 3 5 mph 1011.9mb 74f 76f
7:18 3 6 mph 1011.9mb 74f 77f
7:12 3 6 mph 1011.8mb 74f 77f
7:06 3 6 mph 1011.8mb 74f 78f
7:00 5 6 mph 1011.8mb 74f 78f
6:54 3 9 mph 1011.7mb 74f 79f
6:48 3 8 mph 1011.7mb 74f 79f
6:42 5 8 mph 1011.7mb 74f 79f
6:36 5 8 mph 1011.7mb 74f 80f
6:30 8 13 mph 1011.6mb 74f 79f
6:24 3 7 mph 1011.6mb 74f 80f
6:18 6 9 mph 1011.6mb 74f 79f
6:12 5 10 mph 1011.5mb 74f 79f
6:06 6 11 mph 1011.5mb 74f 79f
6:00 7 13 mph 1011.5mb 74f 79f
5:54 6 16 mph 1011.5mb 74f 79f
5:48 9 13 mph 1011.5mb 73f 79f
5:42 9 14 mph 1011.5mb 73f 79f
5:36 10 15 mph 1011.5mb 73f 79f
5:30 9 15 mph 1011.5mb 73f 79f
5:24 9 15 mph 1011.4mb 73f 80f
5:18 9 15 mph 1011.4mb 74f 80f
5:12 9 17 mph 1011.4mb 73f 79f
5:06 8 14 mph 1011.5mb 74f 80f
5:00 9 14 mph 1011.4mb 76f 80f
4:54 5 13 mph 1011.5mb 76f 80f
4:48 8 17 mph 1011.5mb 75f 79f
4:42 9 15 mph 1011.6mb 75f 79f
4:36 9 16 mph 1011.6mb 74f 78f
4:30 8 14 mph 1011.7mb 74f 79f
4:24 8 15 mph 1011.7mb 75f 79f
4:18 6 15 mph 1011.7mb 75f 80f
4:12 9 15 mph 1011.7mb 75f 79f
4:06 8 14 mph 1011.7mb 75f 79f
4:00 5 14 mph 1011.8mb 75f 80f
3:54 7 14 mph 1011.8mb 76f 80f
3:48 9 16 mph 1011.8mb 76f 80f
3:42 8 15 mph 1011.8mb 75f 79f
3:36 11 18 mph 1011.9mb 74f 79f
3:30 13 18 mph 1012mb 74f 79f
3:24 10 16 mph 1012mb 74f 79f
3:18 7 16 mph 1012mb 76f 80f
3:12 9 14 mph 1012mb 76f 79f
3:06 11 15 mph 1012.1mb 75f 78f
3:00 9 16 mph 1012.1mb 75f 80f
2:54 10 15 mph 1012.1mb 75f 78f
2:48 11 15 mph 1012.1mb 76f 78f
2:42 10 16 mph 1012.1mb 76f 78f
2:36 9 14 mph 1012.2mb 76f 78f
2:30 13 16 mph 1012.3mb 76f 78f
2:24 9 14 mph 1012.3mb 76f 79f
2:18 10 14 mph 1012.3mb 75f 79f
2:12 10 15 mph 1012.4mb 75f 79f
2:06 8 15 mph 1012.4mb 76f 79f
2:00 9 15 mph 1012.4mb 76f 77f
1:54 10 17 mph 1012.4mb 76f 77f
1:48 13 17 mph 1012.5mb 76f 78f
1:42 11 17 mph 1012.5mb 76f 79f
1:36 10 16 mph 1012.6mb 76f 77f
1:30 11 15 mph 1012.6mb 76f 77f
1:24 9 15 mph 1012.6mb 76f 76f
1:18 13 20 mph 1012.6mb 77f 77f
1:12 13 16 mph 1012.6mb 76f 77f
1:06 11 16 mph 1012.6mb 76f 77f
1:00 10 16 mph 1012.5mb 76f 78f
12:54 11 16 mph 1012.5mb 76f 78f
12:48 11 16 mph 1012.5mb 76f 78f
12:42 11 15 mph 1012.5mb 76f 77f
12:36 9 14 mph 1012.5mb 77f 78f
12:30 13 15 mph 1012.6mb 76f 78f
12:24 10 15 mph 1012.5mb 76f 78f
12:18 11 18 mph 1012.6mb 76f 78f
12:12 9 14 mph 1012.6mb 75f 78f
12:06 9 13 mph 1012.5mb 76f 78f
12:00 10 14 mph 1012.6mb 75f 77f
11:54 8 11 mph 1012.6mb 75f 77f
11:48 7 14 mph 1012.7mb 75f 77f
11:42 10 14 mph 1012.8mb 75f 76f
11:36 11 16 mph 1012.7mb 75f 76f
11:30 11 17 mph 1012.7mb 75f 77f
11:24 11 15 mph 1012.5mb 74f 77f
11:18 11 15 mph 1012.5mb 74f 76f
11:12 6 10 mph 1012.4mb 74f 77f
11:06 9 10 mph 1012.3mb 74f 77f
11:00 8 10 mph 1012.3mb 74f 77f
10:54 7 9 mph 1012.3mb 75f 77f
10:48  -  2 mph 1012.4mb 75f 77f
10:42 1 3 mph 1012.4mb 75f 76f
10:36 2 3 mph 1012.4mb 75f 75f
10:30 2 5 mph 1012.3mb 75f 74f
10:24 3 5 mph 1012.2mb 75f 74f
10:18 3 5 mph 1012.2mb 75f 74f
10:12 3 5 mph 1012.1mb 75f 74f
10:06 2 3 mph 1012.1mb 75f 74f
10:00 3 5 mph 1012.1mb 75f 75f
9:54 2 5 mph 1012mb 75f 74f
9:48 2 6 mph 1012mb 76f 75f
9:42 3 6 mph 1012mb 75f 74f
9:36 5 6 mph 1012mb 75f 74f
9:30 3 6 mph 1011.9mb 75f 74f
9:24 5 6 mph 1011.8mb 76f 74f
9:18 5 7 mph 1011.7mb 76f 73f
9:12 5 7 mph 1011.8mb 76f 73f
9:06 5 7 mph 1011.8mb 76f 72f
9:00 6 8 mph 1011.9mb 75f 72f
8:54 6 8 mph 1011.8mb 75f 71f
8:48 6 9 mph 1011.8mb 75f 71f
8:42 6 7 mph 1011.8mb 75f 71f
8:36 3 6 mph 1011.7mb 75f 71f
8:30 5 6 mph 1011.7mb 74f 71f
8:24 3 7 mph 1011.7mb 74f 70f
8:18 6 8 mph 1011.7mb 74f 70f
8:12 7 10 mph 1011.7mb 74f 69f
8:06 7 9 mph 1011.7mb 74f 69f
8:00 6 8 mph 1011.7mb 74f 69f
7:54 6 8 mph 1011.7mb 75f 69f
7:48 5 7 mph 1011.7mb 74f 69f
7:42 5 8 mph 1011.7mb 75f 69f
7:36 5 7 mph 1011.6mb 75f 68f
7:30 5 8 mph 1011.6mb 75f 68f
7:24 3 8 mph 1011.5mb 74f 68f
7:18 7 8 mph 1011.5mb 74f 67f
7:12 5 7 mph 1011.4mb 75f 68f
7:06 3 7 mph 1011.5mb 75f 67f
7:00 5 8 mph 1011.4mb 74f 67f
6:54 5 9 mph 1011.4mb 74f 67f
6:48 6 8 mph 1011.4mb 75f 67f
6:42 6 9 mph 1011.2mb 74f 67f
6:36 6 8 mph 1011.1mb 74f 67f
6:30 5 7 mph 1011mb 74f 67f
6:24 3 6 mph 1010.9mb 74f 67f
6:18 2 5 mph 1010.8mb 74f 67f
6:12 3 5 mph 1010.8mb 74f 67f
6:06 3 5 mph 1010.7mb 74f 67f
6:00 2 5 mph 1010.6mb 74f 68f
5:54 3 5 mph 1010.6mb 74f 68f
5:48 2 5 mph 1010.5mb 74f 68f
5:42 2 5 mph 1010.5mb 74f 68f
5:36 2 5 mph 1010.5mb 74f 69f
5:30 2 5 mph 1010.5mb 74f 69f
5:24 2 5 mph 1010.5mb 74f 69f
5:18 2 5 mph 1010.5mb 74f 69f
5:12 3 5 mph 1010.4mb 75f 70f
5:06  -  5 mph 1010.4mb 74f 70f
5:00 2 5 mph 1010.2mb 74f 70f
4:54 1 5 mph 1010.1mb 75f 71f
4:48 2 3 mph 1010mb 75f 71f
4:42 2 3 mph 1009.9mb 75f 71f
4:36 1 3 mph 1009.9mb 74f 71f
4:30 3 5 mph 1009.8mb 75f 71f
4:24 2 3 mph 1009.9mb 74f 72f
4:18 1 3 mph 1009.9mb 74f 72f
4:12 2 3 mph 1009.9mb 75f 72f
4:06 2 3 mph 1009.9mb 75f 72f
4:00 1 2 mph 1009.9mb 75f 72f
3:54  -  1 mph 1009.8mb 75f 72f
3:48 1 2 mph 1009.8mb 74f 72f
3:42 1 3 mph 1009.7mb 74f 73f
3:36 5 6 mph 1009.8mb 74f 73f
3:30 3 7 mph 1009.8mb 74f 73f
3:24 3 6 mph 1009.8mb 73f 73f
3:18 5 6 mph 1009.9mb 73f 73f
3:12 3 5 mph 1010mb 73f 74f
3:06 2 3 mph 1010.1mb 74f 74f
3:00 2 3 mph 1010.1mb 74f 74f
2:54 2 5 mph 1010mb 74f 74f
2:48 2 5 mph - 74f 74f
2:42 2 3 mph - 75f 74f
2:36 2 3 mph - 74f 74f
2:30 2
mph
1009.9mb 75f 74f
2:24 2 5 mph 1009.9mb 75f 75f
2:18 3 5 mph 1009.9mb 76f 75f
2:12 5 6 mph 1009.9mb 76f 75f
2:06 5
mph
1009.9mb 76f 75f
2:00  -  1 mph 1009.7mb 75f 75f
1:54  -  2 mph 1009.7mb 75f 75f
1:48 1 2 mph 1009.6mb 75f 75f
1:42 1 2 mph 1009.7mb 75f 75f
1:36 1 3 mph 1009.6mb 75f 75f
1:30 2 3 mph 1009.5mb 75f 75f
1:24 2 3 mph 1009.5mb 75f 75f
1:18 1 3 mph 1009.7mb 75f 76f
1:12 1 3 mph 1009.7mb 75f 76f
1:06 2 3 mph 1009.7mb 76f 76f
1:00 2 5 mph 1009.7mb 76f 76f
12:54 2 3 mph 1009.7mb 76f 76f
12:48 3 5 mph 1009.7mb 76f 76f
12:42 1 3 mph 1009.7mb 75f 76f
12:36 1 3 mph 1009.7mb 75f 76f
12:30 2 3 mph 1009.7mb 75f 76f
12:24 2 5 mph 1009.8mb 75f 76f
12:18 3 6 mph 1009.8mb 75f 76f
12:12 5 7 mph 1009.8mb 75f 76f
12:06 5 9 mph 1009.8mb 75f 76f
12:00 5 6 mph 1009.8mb 75f 76f
Ter 08/25 11:54 3 6 mph 1009.8mb 74f 76f
11:48 2 5 mph 1009.9mb 74f 76f
11:42 2 5 mph 1010mb 74f 77f
11:36 1 2 mph 1010mb 74f 76f
11:30 1 3 mph 1010.1mb 74f 76f
11:24 2 5 mph 1010.1mb 74f 76f
11:18 3 7 mph 1010.1mb 73f 76f
11:12 5 7 mph 1010.2mb 74f 77f
11:06 5 6 mph 1010.2mb 75f 77f
11:00 5 6 mph 1010.2mb 75f 77f
10:54 6 7 mph 1010.3mb 75f 77f
10:48 5 7 mph 1010.3mb 75f 77f
10:42 5 8 mph 1010.3mb 75f 77f
10:36 3 6 mph 1010.4mb 75f 77f
10:30 6 7 mph 1010.3mb 75f 76f
10:24 6
mph
1010.3mb 75f 76f
10:18 3 5 mph 1010.2mb 75f 76f
10:12 2 6 mph 1010.2mb 75f 76f
10:06 5 6 mph 1010.2mb 75f 76f
10:00 5 6 mph 1010.3mb 75f 76f
9:54 5 6 mph 1010.3mb 75f 76f
9:48 6 7 mph 1010.3mb 75f 76f
9:42 3 5 mph 1010.3mb 75f 76f
9:36 5 6 mph 1010.4mb 74f 76f
9:30 5 6 mph 1010.5mb 75f 76f
9:24 5 7 mph 1010.5mb 75f 75f
9:18 6 7 mph 1010.5mb 75f 75f
9:12 7 9 mph 1010.5mb 75f 75f
9:06 8 9 mph 1010.4mb 75f 75f
9:00 7 9 mph 1010.4mb 75f 75f
8:54 7 9 mph 1010.4mb 76f 75f
8:48 8 9 mph 1010.4mb 75f 75f
8:42 6 7 mph 1010.3mb 75f 75f
8:36 6 8 mph 1010.3mb 74f 75f
8:30 6 9 mph 1010.3mb 74f 75f
8:24 7 10 mph 1010.2mb 74f 75f
8:18 9 11 mph 1010.1mb 75f 76f
8:12 8 10 mph 1010mb 75f 76f
8:06 8 9 mph 1009.9mb 76f 76f
8:00 9 10 mph 1009.8mb 76f 76f
7:54 9 13 mph 1009.7mb 76f 77f
7:48 10 11 mph 1009.6mb 76f 77f
7:42 9 10 mph 1009.5mb 76f 76f
7:36 8 10 mph 1009.4mb 76f 76f
7:30 8 11 mph 1009.4mb 76f 76f
7:24 9 11 mph 1009.4mb 76f 76f
7:18 9 10 mph 1009.5mb 75f 76f
7:12 9 10 mph 1009.5mb 75f 76f
7:06 8 9 mph 1009.5mb 75f 76f
7:00 8 9 mph 1009.4mb 73f 76f
6:54 9 10 mph 1009.5mb 75f 76f
6:48 9 10 mph 1009.5mb 73f 76f
6:42 9 11 mph 1009.6mb 73f 76f
6:36 8 9 mph 1009.6mb 72f 76f
6:30 8 10 mph 1009.6mb 72f 76f
6:24 9 10 mph 1009.6mb 73f 76f
6:18 9 11 mph 1009.5mb 73f 76f
6:12 10 11 mph 1009.5mb 72f 76f
6:06 10
mph
1009.6mb 72f 76f
6:00 9 13 mph 1009.6mb 72f 76f
5:54 10 13 mph 1009.7mb 73f 77f
5:48 10 14 mph 1009.7mb 73f 77f
5:42 13 14 mph 1009.7mb 73f 77f
5:36 9 13 mph 1009.7mb 73f 77f
5:30 10 11 mph 1009.8mb 72f 77f
5:24 11 13 mph 1009.7mb 72f 77f
5:18 11
mph
1009.6mb 72f 78f
5:12 10 11 mph 1009.5mb 73f 79f
5:06 10 11 mph 1009.5mb 73f 79f
5:00 10 13 mph 1009.5mb 73f 78f
4:54 11 13 mph 1009.5mb 72f 79f
4:48 10 13 mph 1009.5mb 72f 79f
4:42 9 11 mph 1009.4mb 72f 79f
4:36 10 11 mph 1009.5mb 72f 79f
4:30 9 11 mph 1009.5mb 73f 79f
4:24 10 11 mph 1009.6mb 72f 79f
4:18 9 10 mph 1009.6mb 73f 79f
4:12 9 11 mph 1009.7mb 74f 78f
4:06 10 13 mph 1009.7mb 74f 78f
4:00 11 14 mph 1009.7mb 74f 78f
3:54 11 13 mph 1009.8mb 73f 78f
3:48 13 14 mph 1009.8mb 73f 78f
3:42 13 14 mph 1009.8mb 74f 79f
3:36 13 14 mph 1009.9mb 74f 79f
3:30 11 14 mph 1009.8mb 74f 79f
3:24 13 14 mph 1009.9mb 73f 79f
3:18 13 15 mph 1009.9mb 74f 79f
3:12 13 14 mph 1010mb 74f 79f
3:06 13 15 mph 1010mb 74f 79f
3:00 13 15 mph 1010.1mb 73f 79f
2:54 13 14 mph 1010.1mb 73f 79f
2:48 13 14 mph 1010.2mb 74f 79f
2:42 13 15 mph 1010.2mb 74f 79f
2:36 13 15 mph 1010.2mb 74f 79f
2:30 13 14 mph 1010.3mb 74f 79f
2:24 11 14 mph 1010.3mb 74f 79f
2:18 11 14 mph 1010.3mb 74f 79f
2:12 11 14 mph 1010.3mb 74f 79f
2:06 10 13 mph 1010.4mb 75f 79f
2:00 13 14 mph 1010.4mb 75f 79f
1:54 11 14 mph 1010.4mb 75f 79f
1:48 11 14 mph 1010.4mb 75f 79f
1:42 11 14 mph 1010.5mb 74f 78f
1:36 11 14 mph 1010.6mb 74f 79f
1:30 13 14 mph 1010.6mb 74f 79f
1:24 11 15 mph 1010.6mb 74f 79f
1:18 11 14 mph 1010.5mb 74f 79f
1:12 13 14 mph 1010.6mb 74f 79f
1:06 10 15 mph 1010.7mb 74f 79f
1:00 9 13 mph 1010.8mb 74f 79f
12:54 10 13 mph 1010.8mb 74f 79f
12:48 10 11 mph 1010.9mb 74f 79f
12:42 9 11 mph 1011mb 74f 79f
12:36 9 10 mph 1011mb 74f 79f
12:30 10 13 mph 1011.1mb 74f 79f
12:24 8 13 mph 1011.2mb 75f 80f
12:18 11 14 mph 1011.2mb 74f 79f
12:12 9 13 mph 1011.2mb 74f 79f
12:06 9 15 mph 1011.2mb 74f 78f
12:00 8 11 mph 1011.2mb 74f 79f
11:54 9 11 mph 1011.3mb 74f 78f
11:48 10 13 mph 1011.3mb 74f 77f
11:42 7 10 mph 1011.4mb 74f 78f
11:36 9 11 mph 1011.4mb 74f 78f
11:30 11 13 mph - 74f 77f
11:24 10 11 mph - 74f 78f
11:18 8 10 mph 1011.4mb 74f 77f
11:12 9 10 mph 1011.4mb 74f 77f
11:06 10 11 mph 1011.4mb 73f 77f
11:00 7 10 mph 1011.4mb 73f 76f
10:54 9 11 mph 1011.3mb 73f 75f
10:48 8 9 mph 1011.2mb 73f 76f
10:42 7 11 mph 1011.2mb 73f 76f
10:36 8 9 mph 1011.2mb 73f 76f
10:30 6 8 mph 1011.2mb 73f 76f
10:24 7 9 mph 1011.2mb 73f 74f
10:18 8 10 mph - 73f 75f
10:12 8 11 mph - 73f 74f
10:06 8 13 mph - 73f 74f
10:00 8 10 mph 1011.1mb 73f 74f
9:54 8 10 mph 1011mb 74f 74f
9:48 8 9 mph 1011mb 74f 74f
9:42 7 8 mph 1011mb 74f 75f
9:36 6 7 mph 1011.1mb 73f 76f
9:30 6 8 mph 1011mb 73f 76f
9:24 5 7 mph 1010.9mb 73f 76f
9:18 3 6 mph 1010.8mb 73f 76f
9:12 5 7 mph 1010.8mb 73f 75f
9:06 5 7 mph 1010.8mb 73f 75f
9:00 6
mph
1010.8mb 73f 75f
8:54 2 5 mph 1010.8mb 73f 74f
8:48 3 5 mph 1010.8mb 73f 74f
8:42 2 3 mph 1010.8mb 73f 74f
8:36 2 5 mph 1010.7mb 73f 73f
8:30 2 3 mph 1010.8mb 73f 73f
8:24 2 5 mph 1010.7mb 73f 73f
8:18 3 7 mph 1010.7mb 73f 73f
8:12 3 6 mph 1010.7mb 73f 73f
8:06 3 6 mph 1010.7mb 73f 73f
8:00 3 7 mph 1010.7mb 73f 73f
7:54 5 6 mph 1010.6mb 73f 73f
7:48 6 8 mph 1010.6mb 73f 72f
7:42 5 7 mph 1010.6mb 73f 73f
7:36 5 7 mph 1010.7mb 73f 73f
7:30 5 9 mph 1010.7mb 73f 73f
7:24 5 9 mph 1010.6mb 73f 72f
7:18 6 9 mph 1010.5mb 73f 73f
7:12 6 8 mph 1010.4mb 73f 72f
7:06 6 9 mph 1010.4mb 74f 72f
7:00 6 7 mph 1010.5mb 74f 72f
6:54 5 6 mph 1010.5mb 74f 72f
6:48 3 6 mph 1010.4mb 74f 72f
6:42 3 6 mph 1010.4mb 74f 72f
6:36 5 6 mph 1010.4mb 74f 72f
6:30 3 6 mph 1010.5mb 74f 72f
6:24 5 6 mph 1010.5mb 74f 72f
6:18 3 6 mph 1010.4mb 74f 72f
6:12 6 7 mph 1010.4mb 74f 72f
6:06 3 5 mph 1010.4mb 74f 72f
6:00 3 6 mph 1010.3mb 74f 72f
5:54 5 7 mph 1010.3mb 74f 72f
5:48 3 8 mph 1010.4mb 73f 72f
5:42 5 9 mph 1010.3mb 73f 72f
5:36 7 8 mph 1010.2mb 73f 72f
5:30 6 8 mph 1010.2mb 73f 72f
5:24 6 8 mph 1010.1mb 73f 72f
5:18 3 5 mph 1010.1mb 74f 72f
5:12 3 5 mph 1010.1mb 74f 72f
5:06 2 3 mph 1010.2mb 74f 72f
5:00  -  2 mph 1010.2mb 74f 72f
4:54 1 2 mph 1010.1mb 74f 72f
4:48 2 3 mph 1010mb 74f 72f
4:42 1 2 mph 1009.9mb 74f 72f
4:36 1 3 mph 1010mb 74f 72f
4:30 2 5 mph 1010mb 74f 72f
4:24 3 6 mph 1010.1mb 74f 72f
4:18 5
mph
1010.2mb 74f 72f
4:12 1 3 mph 1010.3mb 74f 72f
4:06  -  5 mph 1010.4mb 74f 72f
4:00 2 3 mph 1010.4mb 74f 72f
3:54 2
mph
1010.4mb 74f 72f
3:48 2
mph
1010.4mb 74f 72f
3:42 2 3 mph 1010.5mb 74f 72f
3:36  -  1 mph 1010.5mb 74f 72f
3:30  -  1 mph 1010.5mb 74f 72f
3:24 1 2 mph 1010.5mb 74f 72f
3:18 1 2 mph 1010.5mb 74f 72f
3:12 1 3 mph 1010.5mb 74f 72f
3:06 2 5 mph 1010.5mb 74f 72f
3:00 2
mph
1010.5mb 74f 72f
2:54 1 2 mph 1010.5mb 74f 72f
2:48 1 2 mph 1010.6mb 74f 72f
2:42  -  2 mph 1010.5mb 74f 72f
2:36  -  1 mph 1010.5mb 74f 72f
2:30 1 2 mph 1010.6mb 74f 72f
2:24  -  3 mph 1010.6mb 74f 72f
2:18 3
mph
1010.7mb 74f 72f
2:12 1 2 mph 1010.8mb 74f 72f
2:06 1 2 mph 1010.8mb 74f 72f
2:00 1 5 mph 1010.9mb 74f 72f
1:54 1 3 mph 1010.9mb 74f 72f
1:48 2 3 mph 1010.9mb 74f 72f
1:42 2 5 mph 1011mb 74f 72f
1:36  -  2 mph 1011.1mb 74f 72f
1:30  -  2 mph 1011mb 74f 72f
1:24 1 2 mph 1011mb 74f 72f
1:18 2 3 mph 1011mb 74f 72f
1:12 2 3 mph 1011.1mb 74f 72f
1:06 1 3 mph 1011.2mb 74f 72f
1:00 3 5 mph 1011.1mb 74f 72f
12:54 3 5 mph 1011.1mb 74f 72f
12:48 1 2 mph 1011.1mb 74f 72f
12:42  -  2 mph 1011.1mb 74f 72f
12:36  -  2 mph 1011mb 74f 72f
12:30 2 3 mph 1011mb 74f 72f
12:24 2
mph
1011.1mb 74f 72f
12:18 2 3 mph 1011.1mb 74f 72f
12:12 2 3 mph 1011.1mb 74f 72f
12:06 1 2 mph 1011.2mb 74f 72f
12:00 1 2 mph 1011.3mb 74f 72f
Seg 08/24 11:54 2 3 mph 1011.1mb 74f 72f
11:48 2 3 mph 1011.2mb 74f 72f
11:42 2 5 mph 1011.2mb 74f 73f
11:36 3 5 mph 1011.2mb 74f 73f
11:30 1 2 mph 1011.2mb 74f 73f
11:24 1 5 mph 1011.1mb 74f 73f
11:18 1 2 mph 1011mb 74f 73f
11:12  -  1 mph 1011mb 74f 73f
11:06  -  2 mph 1011mb 74f 73f
11:00 2 3 mph 1011mb 74f 73f
10:54 1 6 mph 1011mb 74f 73f
10:48  -  mph - 74f 73f
10:42  -  mph - 74f 73f
10:36  -  mph - 74f 73f
10:30 3 5 mph 1011.2mb 74f 73f
10:24 5
mph
1011.1mb 74f 73f
10:18 3 5 mph 1011.1mb 74f 73f
10:12 3 6 mph 1011.1mb 74f 73f
10:06 5 6 mph 1011.2mb 74f 73f
10:00 5 6 mph 1011.2mb 74f 74f
9:54 5 6 mph 1011.1mb 74f 74f
9:48 7 8 mph 1011mb 74f 74f
9:42 6 7 mph 1011mb 74f 74f
9:36 6 9 mph 1010.9mb 74f 74f
9:30 7 8 mph 1010.8mb 74f 74f
9:24 6 8 mph 1010.7mb 74f 74f
9:18 6 8 mph 1010.6mb 74f 74f
9:12 6 9 mph 1010.6mb 74f 74f
9:06 7 9 mph 1010.6mb 74f 74f
9:00 7 9 mph 1010.6mb 74f 74f
8:54 7 9 mph 1010.5mb 74f 74f
8:48 8 10 mph 1010.6mb 74f 74f
8:42 8 10 mph 1010.7mb 73f 74f
8:36 8 11 mph 1010.7mb 73f 74f
8:30 8 10 mph 1010.7mb 74f 74f
8:24 7 10 mph 1010.7mb 74f 74f
8:18 8 10 mph 1010.8mb 74f 74f
8:12 9 10 mph 1010.7mb 74f 74f
8:06 8 9 mph 1010.6mb 74f 74f
8:00 8 11 mph 1010.6mb 74f 74f
7:54 8 11 mph 1010.6mb 74f 74f
7:48 9 14 mph 1010.6mb 73f 74f
7:42 9 14 mph 1010.6mb 73f 74f
7:36 8 11 mph 1010.6mb 73f 75f
7:30 8 11 mph 1010.6mb 73f 75f
7:24 10 13 mph 1010.6mb 74f 75f
7:18 9 13 mph 1010.6mb 74f 75f
7:12 9 14 mph 1010.5mb 74f 75f
7:06 10 11 mph 1010.6mb 74f 75f
7:00 9 11 mph 1010.6mb 73f 75f
6:54 10 13 mph 1010.7mb 73f 75f
6:48 9 13 mph 1010.6mb 73f 75f
6:42 10 13 mph 1010.6mb 73f 75f
6:36 10 11 mph 1010.6mb 73f 75f
6:30 8 10 mph 1010.6mb 73f 75f
6:24 8 10 mph 1010.6mb 73f 75f
6:18 9 11 mph 1010.6mb 72f 75f
6:12 10 13 mph 1010.7mb 72f 75f
6:06 11 14 mph 1010.7mb 72f 75f
6:00 10 13 mph 1010.7mb 72f 75f
5:54 9 11 mph 1010.8mb 72f 75f
5:48 10 13 mph 1010.8mb 72f 75f
5:42 10 11 mph 1010.8mb 72f 76f
5:36 9 13 mph 1010.8mb 73f 76f
5:30 10 13 mph 1010.8mb 72f 76f
5:24 10 11 mph 1010.8mb 72f 76f
5:18 10 14 mph 1010.8mb 72f 76f
5:12 10 13 mph 1010.8mb 72f 77f
5:06 10 13 mph 1010.8mb 72f 77f
5:00 10 13 mph 1010.7mb 72f 77f
4:54 11 13 mph 1010.7mb 72f 77f
4:48 11 14 mph 1010.7mb 72f 77f
4:42 10 14 mph 1010.7mb 72f 77f
4:36 11 14 mph 1010.8mb 72f 77f
4:30 10 13 mph 1010.9mb 72f 77f
4:24 10 13 mph 1010.9mb 72f 77f
4:18 8 13 mph 1010.9mb - 77f
4:12 9 13 mph 1010.9mb - 77f
4:06 10 14 mph 1011mb - 77f
4:00 11 13 mph 1010.9mb 72f 77f
3:54 10 13 mph 1011mb 72f 77f
3:48 9 11 mph 1011mb 72f 78f
3:42 9 11 mph 1011.1mb 72f 78f
3:36 9 14 mph 1011.2mb 72f 78f
3:30 10 13 mph 1011.2mb 72f 78f
3:24 10 13 mph 1011.2mb 73f 78f
3:18 8 14 mph 1011.2mb 73f 78f
3:12 10 15 mph 1011.3mb 73f 78f
3:06 11 14 mph 1011.3mb 72f 78f
3:00 9 15 mph 1011.4mb 73f 78f
2:54 10 14 mph 1011.3mb 72f 77f
2:48 9 13 mph 1011.3mb 72f 78f
2:42 9 13 mph 1011.4mb 72f 78f
2:36 11 14 mph 1011.4mb 73f 78f
2:30 10 14 mph 1011.4mb 72f 77f
2:24 10 13 mph 1011.4mb 71f 77f
2:18 10 13 mph 1011.5mb 72f 77f
2:12 9 13 mph 1011.5mb 71f 78f
2:06 9 11 mph 1011.5mb 72f 78f
2:00 8 10 mph 1011.5mb 72f 78f
1:54 9 11 mph 1011.5mb 72f 77f
1:48 8 11 mph 1011.5mb 72f 78f
1:42 8 11 mph 1011.5mb 72f 78f
1:36 9 11 mph 1011.5mb 72f 78f
1:30 8 11 mph 1011.6mb 73f 78f
1:24 8 10 mph 1011.6mb 73f 78f
1:18 8 11 mph 1011.6mb 73f 78f
1:12 8 10 mph 1011.6mb 72f 77f
1:06 8 10 mph 1011.7mb 73f 77f
1:00 8 10 mph 1011.7mb 72f 77f
12:54 8 9 mph 1011.8mb 72f 77f
12:48 7 8 mph 1011.8mb 73f 77f
12:42 8 9 mph 1011.9mb 73f 76f
12:36 8 10 mph 1011.8mb 73f 76f
12:30 9 10 mph 1011.9mb 72f 76f
12:24 9 11 mph 1011.9mb 73f 76f
12:18 6 9 mph 1011.9mb 73f 76f
12:12 8 9 mph 1011.9mb 73f 76f
12:06 8 10 mph 1011.9mb 73f 76f
12:00 6 9 mph 1012mb 73f 77f
11:54 3 6 mph 1012mb 72f 77f
11:48 5 8 mph 1012.1mb 72f 77f
11:42 3 8 mph 1012.1mb 72f 77f
11:36 5 8 mph 1012.2mb 73f 76f
11:30 9 10 mph 1012.2mb 72f 76f
11:24 2 6 mph 1012.2mb 72f 77f
11:18 3 5 mph 1012.2mb 72f 76f
11:12 1 2 mph 1012.2mb 73f 76f
11:06  -  2 mph 1012.3mb 73f 75f
11:00 3
mph
1012.3mb 73f 74f
10:54 1 3 mph 1012.3mb 73f 75f
10:48 2 3 mph 1012.4mb 73f 74f
10:42 2 5 mph 1012.4mb 73f 74f
10:36 2
mph
1012.4mb 73f 74f
10:30 1 3 mph 1012.3mb 72f 73f
10:24 3 6 mph 1012.4mb 73f 73f
10:18 5 7 mph 1012.4mb 73f 72f
10:12 5 7 mph 1012.6mb 73f 72f
10:06 3 8 mph 1012.6mb 73f 72f
10:00 5 9 mph 1012.6mb 72f 72f
9:54 5 7 mph 1012.6mb 72f 72f
9:48 2 5 mph 1012.6mb 73f 72f
9:42 3 5 mph 1012.6mb 73f 72f
9:36 2 6 mph 1012.6mb 73f 72f
9:30 3 7 mph 1012.6mb 73f 71f
9:24 3 6 mph 1012.6mb 73f 71f
9:18 5 6 mph 1012.6mb 73f 71f
9:12 3 7 mph 1012.6mb 73f 71f
9:06 2 6 mph 1012.5mb 73f 71f
9:00 3 6 mph 1012.6mb 73f 71f
8:54 5 6 mph 1012.5mb 73f 71f
8:48 5 6 mph 1012.4mb 73f 71f
8:42 2 5 mph 1012.5mb 72f 71f
8:36 2 5 mph 1012.5mb 72f 71f
8:30 1 3 mph 1012.5mb 72f 71f
8:24 3 5 mph 1012.5mb 72f 71f
8:18 2 5 mph 1012.5mb 72f 71f
8:12 2 5 mph 1012.5mb 72f 71f
8:06 3 6 mph 1012.4mb 72f 71f
8:00 3 6 mph 1012.4mb 72f 71f
7:54 5
mph
1012.4mb 72f 71f
7:48 2 3 mph 1012.4mb 72f 71f
7:42 2 3 mph 1012.3mb 72f 71f
7:36 3 5 mph 1012.3mb 72f 71f
7:30  -  2 mph 1012.3mb 72f 71f
7:24 2
mph
1012.2mb 72f 71f
7:18 1 3 mph 1012.1mb 72f 71f
7:12 1 3 mph 1012.1mb 72f 71f
7:06 2 5 mph 1012.1mb 72f 71f
7:00 2 3 mph 1012.1mb 72f 70f
6:54 2 5 mph 1012mb 72f 70f
6:48 1 3 mph 1012mb 72f 70f
6:42 1 3 mph 1012mb 72f 70f
6:36 1 3 mph 1011.9mb 72f 70f
6:30 2 3 mph 1011.8mb 72f 70f
6:24 2 5 mph 1011.8mb 72f 71f
6:18 3 5 mph 1011.9mb 72f 70f
6:12 2 3 mph 1011.9mb 72f 70f
6:06 1 5 mph 1011.8mb 72f 70f
6:00 2 3 mph 1011.7mb 72f 70f
5:54 3 5 mph 1011.6mb 72f 70f
5:48 2 5 mph 1011.5mb 72f 70f
5:42 2 3 mph 1011.4mb 72f 70f
5:36 2 5 mph 1011.4mb 72f 71f
5:30 2 5 mph 1011.4mb 72f 71f
5:24 2 5 mph 1011.5mb 72f 71f
5:18 2 3 mph 1011.4mb 72f 71f
5:12 2 3 mph 1011.4mb 72f 71f
5:06 2 5 mph 1011.4mb 72f 71f
5:00 2 3 mph 1011.5mb 72f 71f
4:54  -  2 mph 1011.6mb 72f 71f
4:48 2 5 mph 1011.5mb 72f 71f
4:42 2 5 mph 1011.5mb 72f 71f
4:36 2 5 mph 1011.4mb 72f 71f
4:30 3 5 mph 1011.4mb 72f 71f
4:24 2 3 mph 1011.5mb 73f 71f
4:18 3 5 mph 1011.5mb 72f 71f
4:12 2 3 mph 1011.6mb 72f 71f
4:06 2 3 mph 1011.6mb 73f 71f
4:00 1 3 mph 1011.6mb 73f 71f
3:54 2 3 mph 1011.7mb 73f 71f
3:48 2 3 mph 1011.8mb 72f 71f
3:42 2 3 mph 1011.8mb 72f 71f
3:36 2 5 mph 1011.8mb 72f 71f
3:30 2 6 mph 1011.8mb 73f 71f
3:24 2 5 mph 1011.8mb 73f 71f
3:18 3 5 mph 1011.7mb 73f 71f
3:12 2 3 mph 1011.7mb 73f 71f
3:06 3
mph
1011.8mb 73f 71f
3:00 1 2 mph 1011.8mb 73f 71f
2:54  -  1 mph 1011.9mb 73f 72f
2:48  -  2 mph 1012mb 73f 71f
2:42 1 3 mph 1012mb 73f 72f
2:36 2 3 mph 1012.1mb 73f 72f
2:30 1 2 mph 1012.1mb 73f 72f
2:24 2
mph
1012.1mb 73f 72f
2:18 1 3 mph 1012.1mb 73f 72f
2:12 2
mph
1012.1mb 73f 72f
2:06 1 2 mph 1012.1mb 73f 72f
2:00 1 5 mph 1012.1mb 73f 72f
1:54 2 6 mph 1012.1mb 73f 72f
1:48 2 6 mph 1012.2mb 73f 72f
1:42 2 5 mph 1012.2mb 72f 72f
1:36 2 5 mph 1012.2mb 72f 73f
1:30 3 6 mph 1012.3mb 73f 72f
1:24 2 3 mph 1012.4mb 73f 73f
1:18 3 5 mph 1012.4mb 73f 72f
1:12 3 6 mph 1012.4mb 73f 73f
1:06 2 5 mph 1012.4mb 73f 72f
1:00 3 6 mph 1012.5mb 73f 72f
12:54 3 6 mph 1012.6mb 73f 73f
12:48 2 3 mph 1012.6mb 73f 73f
12:42 3
mph
1012.5mb 73f 72f
12:36 2 3 mph 1012.5mb 73f 73f
12:30 2 3 mph 1012.6mb 73f 73f
12:24 1 3 mph 1012.6mb 73f 73f
12:18 2 3 mph 1012.7mb 73f 72f
12:12 1 2 mph 1012.7mb 73f 72f
12:06 2
mph
1012.6mb 73f 72f
12:00  -  3 mph 1012.5mb 73f 73f
Dom 08/23 11:54 1 3 mph 1012.5mb 73f 72f
11:48  -  2 mph 1012.5mb 73f 73f
11:42 1 2 mph 1012.6mb 73f 72f
11:36 1 2 mph 1012.7mb 73f 72f
11:30 1 2 mph 1012.7mb 74f 73f
11:24  -  2 mph 1012.7mb 73f 73f
11:18 2 3 mph 1012.8mb 73f 73f
11:12 2 3 mph 1012.8mb 73f 73f
11:06 2 3 mph 1012.8mb 73f 73f
11:00 2 3 mph 1012.9mb 74f 73f
10:54 2 3 mph 1012.8mb 74f 73f
10:48 1 2 mph 1012.8mb 74f 73f
10:42 2
mph
1012.8mb 73f 73f
10:36 2
mph
1012.9mb 73f 73f
10:30  -  2 mph 1012.9mb 73f 73f